Location: Central Falls
(41.8900°N, 71.3929°W)
Time: 04:09:26
(UTC+00:00)

Vanguard 2 Rocket - Pass Details

Date: 05 December 2023
Orbit: 555 x 3309 km, 32.9° (Epoch: 01 March)

Event Time Altitude Azimuth Distance (km) Brightness Sun altitude
Rises 17:21:57 0° 211° (SSW) 5,679 12.1 24.8°
Reaches altitude 10° 17:25:43 10° 202° (SSW) 5,024 12.5 24.7°
Maximum altitude 17:39:21 36° 143° (SE) 4,154 11.0 24.1°
Drops below altitude 10° 17:56:18 10° 87° (E) 6,252 11.0 23.1°
Sets 18:01:38 0° 80° (E) 7,179 11.2 22.7°
